Temp
58 55 52 57 60 57 55 54 53 56 58 58 56 44 41 42 41 38 36 34 34 34 36 37 37 36 36 37 38 40 43 48 61 62 62 63 62 64 65 66 65 66 66 66
54 50 60 58 56 54 53 52 53 55 56 56 53 38 37 38 35 34 33 32 31 33 34 34 35 34 34 34 35 36 39 41 44 58 62 62 63 64 65 64 63 64 64 63
53 53 54 54 51 50 52 51 53 52 52 55 54 42 36 36 37 37 35 33 32 30 30 31 32 32 32 31 32 34 36 37 39 43 56 59 60 60 59 60 61 60 62 61
53 54 52 52 51 54 49 56 54 51 49 47 54 47 37 35 34 34 34 33 31 30 30 30 30 30 30 30 32 33 34 34 37 39 41 49 57 58 61 61 62 61 60 60
51 49 48 48 51 54 51 52 51 49 49 47 48 46 31 38 34 29 31 31 31 31 29 28 28 29 30 30 30 32 33 33 33 35 36 37 42 55 58 59 58 59 59 59
52 54 53 53 52 54 53 51 49 48 48 39 50 48 34 33 25 28 30 30 30 30 30 30 30 29 29 30 29 30 30 30 32 32 33 33 33 38 48 52 55 57 58 58
48 48 52 53 50 51 51 49 41 37 35 39 42 42 26 24 26 26 26 27 29 29 30 29 29 29 29 28 28 29 28 28 30 30 31 30 31 33 34 37 43 47 52 55
43 38 46 50 49 48 48 49 42 33 35 41 43 39 22 26 29 29 28 27 28 28 28 28 28 29 29 30 30 28 27 26 28 29 29 30 30 31 31 32 33 37 41 44
40 40 46 47 48 48 45 43 48 42 41 38 41 21 24 27 26 26 26 26 25 26 26 26 27 28 28 28 28 29 29 28 27 27 27 27 28 28 28 30 31 31 34 38
39 38 41 45 48 48 46 45 40 43 32 31 38 33 26 23 22 24 24 22 24 25 25 26 26 26 27 28 28 29 29 28 29 28 27 26 25 26 27 28 27 28 30 32
40 38 38 42 36 36 41 41 40 40 37 34 34 30 25 22 21 20 21 22 22 23 23 24 25 26 27 27 27 27 27 27 27 28 28 27 26 25 25 25 26 26 27 29
37 34 33 29 35 38 35 32 34 35 32 31 30 25 21 21 21 21 20 21 22 23 22 23 23 24 24 24 24 24 24 24 25 26 27 27 27 27 25 24 25 25 25 27
36 31 27 28 32 35 28 27 29 30 29 26 27 23 18 19 19 19 19 20 19 19 19 19 19 18 18 19 19 19 20 21 22 23 24 24 24 24 24 24 24 25 25 26
38 29 26 27 25 29 24 22 24 25 23 25 26 13 12 13 14 16 17 17 15 15 14 15 15 15 15 15 15 16 17 18 19 20 20 20 21 22 22 23 23 22 23 23
33 23 25 26 28 27 20 19 18 20 14 19 12 11 8 8 9 11 13 14 13 12 12 12 12 13 13 13 14 14 15 16 17 17 17 19 20 21 21 21 22 22 22 22
32 22 25 20 24 24 16 13 16 15 9 7 5 8 7 10 12 13 13 11 10 10 10 11 11 11 11 11 12 13 14 14 16 15 15 18 18 18 19 20 20 21 21 21
27 24 20 16 22 20 14 9 12 12 11 10 14 7 10 10 10 10 9 8 8 9 9 9 10 10 10 11 12 11 12 14 14 14 15 17 16 16 18 19 19 19 19 20
27 24 21 16 20 10 6 12 11 10 5 6 7 7 6 6 7 8 9 9 7 7 8 8 9 9 10 11 10 11 11 12 13 13 14 15 15 15 17 17 18 18 20 20
30 25 15 16 16 8 4 7 6 6 6 4 4 5 7 6 8 9 8 6 8 8 8 8 9 10 10 9 10 10 10 12 11 12 14 15 15 15 16 16 16 18 19 20
27 27 23 15 12 10 7 7 8 7 8 5 3 4 3 3 8 14 8 9 8 8 9 9 10 11 10 11 12 11 11 12 12 13 14 16 16 16 15 16 17 18 19 19
18 16 15 16 14 6 7 7 7 5 6 4 5 5 2 3 7 8 8 7 9 10 10 12 11 9 11 13 13 11 12 12 14 15 15 15 16 15 16 17 18 18 18 19
10 11 13 9 9 6 7 7 5 4 3 4 4 4 2 4 4 4 6 7 8 8 9 11 10 11 13 14 12 11 11 14 14 14 13 13 14 14 15 15 16 17 17 16
9 5 9 7 7 8 6 7 3 4 2 5 1 3 2 1 3 5 5 7 8 9 9 11 10 10 12 13 12 10 11 13 12 12 11 12 13 13 14 13 14 14 14 14
4 4 6 4 5 6 2 -1 1 0 1 2 2 0 1 0 3 4 7 7 7 9 9 10 9 9 10 12 12 11 12 12 11 9 10 10 10 11 13 13 13 12 12 12
6 5 -0 4 2 1 1 1 2 -2 -4 -4 2 2 3 5 5 6 5 6 7 8 9 9 9 9 9 11 10 11 11 11 9 9 8 9 10 10 10 11 11 11 13 14
7 2 6 8 1 2 5 2 -2 -5 -1 2 3 4 7 7 5 6 5 7 7 7 10 9 9 8 9 9 9 10 11 10 8 7 8 8 8 8 10 10 9 15 16 17
MSLP
1012.30 1011.96 1011.06 1011.00 1010.99 1011.05 1010.82 1010.78 1010.82 1011.37 1012.04 1012.77 1014.34 1018.03 1021.08 1023.08 1024.20 1025.35 1026.45 1027.24 1027.69 1028.02 1028.39 1028.04 1027.58 1027.05 1026.20 1025.15 1024.14 1023.26 1022.00 1020.77 1019.06 1018.55 1018.29 1018.08 1017.98 1018.22 1018.40 1018.52 1018.80 1018.87 1018.96 1019.14
1012.42 1011.36 1010.95 1011.41 1011.60 1011.52 1011.33 1011.06 1010.92 1011.64 1012.33 1013.06 1014.66 1018.67 1021.79 1023.84 1025.54 1026.93 1027.81 1028.52 1028.97 1029.03 1028.90 1028.79 1028.37 1027.89 1027.33 1026.80 1025.85 1024.71 1023.69 1022.60 1021.34 1019.53 1018.75 1018.57 1018.33 1018.32 1018.30 1018.61 1018.87 1019.04 1019.14 1019.30
1011.43 1011.59 1011.54 1011.54 1011.87 1011.81 1011.53 1011.19 1011.06 1011.59 1012.53 1013.18 1014.37 1017.89 1021.21 1024.42 1026.08 1027.48 1028.69 1029.72 1030.17 1030.37 1030.23 1029.97 1029.54 1029.22 1028.67 1027.92 1027.22 1026.42 1025.40 1024.34 1023.22 1021.88 1019.97 1019.27 1019.01 1018.97 1018.82 1018.85 1018.86 1019.07 1019.25 1019.40
1011.90 1011.99 1011.91 1011.95 1011.77 1011.73 1011.34 1011.27 1011.37 1011.87 1012.39 1012.40 1013.90 1015.74 1020.36 1023.84 1026.08 1027.91 1029.26 1030.27 1030.94 1031.25 1031.29 1031.12 1030.74 1030.26 1029.95 1029.43 1028.71 1027.72 1026.69 1025.70 1024.65 1023.75 1022.30 1020.67 1019.60 1018.96 1018.69 1018.74 1018.86 1018.99 1019.27 1019.37
1011.77 1011.95 1012.06 1011.92 1011.68 1011.72 1011.56 1011.76 1011.79 1012.04 1012.11 1012.71 1013.75 1015.91 1020.26 1023.44 1025.92 1028.59 1030.21 1031.16 1031.76 1032.08 1032.17 1032.08 1031.95 1031.65 1031.26 1030.56 1029.75 1028.97 1028.00 1026.97 1026.07 1025.15 1024.31 1023.42 1022.10 1020.38 1019.89 1019.56 1019.31 1019.13 1019.21 1019.48
1012.11 1012.36 1012.17 1012.00 1012.17 1012.19 1012.32 1012.16 1012.32 1012.46 1012.49 1012.55 1013.00 1015.88 1020.81 1024.49 1028.00 1029.66 1031.02 1031.90 1032.39 1032.70 1032.77 1032.89 1032.88 1032.57 1032.01 1031.41 1030.64 1029.81 1029.00 1028.29 1027.46 1026.53 1025.71 1025.00 1024.34 1023.25 1021.52 1020.79 1020.12 1019.74 1019.66 1019.49
1012.55 1012.59 1012.70 1012.70 1012.54 1012.74 1012.52 1012.11 1011.88 1012.21 1012.49 1012.04 1014.24 1017.29 1023.02 1027.18 1029.65 1031.17 1032.09 1032.73 1033.22 1033.43 1033.29 1033.18 1032.86 1032.49 1032.17 1031.79 1031.36 1030.82 1030.19 1029.41 1028.72 1027.90 1027.10 1026.43 1025.72 1025.00 1024.32 1023.59 1022.49 1021.58 1020.68 1020.11
1013.04 1013.46 1013.38 1013.45 1013.04 1012.60 1012.49 1012.08 1011.45 1011.17 1011.60 1012.51 1015.36 1018.89 1024.86 1028.73 1030.76 1032.07 1033.12 1033.67 1033.98 1034.05 1034.07 1034.03 1033.89 1033.48 1033.16 1032.72 1032.21 1031.76 1031.21 1030.57 1029.97 1029.21 1028.48 1027.86 1027.13 1026.38 1025.83 1025.30 1024.56 1023.74 1022.85 1022.10
1014.34 1014.20 1014.39 1014.38 1014.19 1013.94 1013.49 1013.12 1012.99 1012.43 1012.95 1013.97 1015.98 1022.69 1026.85 1029.37 1031.16 1032.56 1033.46 1034.11 1034.47 1034.74 1034.83 1034.74 1034.55 1034.31 1034.00 1033.60 1033.14 1032.61 1031.98 1031.42 1030.99 1030.40 1029.72 1029.00 1028.32 1027.66 1026.97 1026.38 1025.83 1025.20 1024.54 1023.55
1016.04 1015.52 1015.56 1015.41 1015.28 1014.98 1014.60 1014.82 1014.12 1013.89 1013.85 1014.58 1016.87 1021.24 1025.72 1029.37 1031.58 1033.06 1033.97 1034.74 1035.24 1035.53 1035.52 1035.47 1035.26 1034.98 1034.70 1034.37 1033.97 1033.50 1032.89 1032.25 1031.68 1031.14 1030.56 1030.10 1029.55 1028.91 1028.21 1027.39 1026.77 1026.13 1025.51 1024.73
1017.36 1016.94 1016.93 1016.67 1017.58 1017.38 1016.59 1016.31 1016.16 1016.03 1016.27 1016.53 1018.66 1023.58 1028.05 1030.75 1032.89 1034.08 1035.04 1035.75 1036.10 1036.16 1036.16 1036.14 1035.96 1035.77 1035.49 1035.07 1034.62 1034.14 1033.62 1033.01 1032.40 1031.79 1031.20 1030.60 1030.17 1029.71 1029.16 1028.38 1027.77 1027.13 1026.36 1025.64
1019.05 1018.58 1018.39 1019.39 1020.20 1020.03 1019.83 1019.74 1019.21 1018.57 1018.70 1019.93 1022.23 1026.45 1030.83 1032.82 1034.37 1035.30 1036.11 1036.69 1037.03 1037.15 1037.12 1037.02 1036.78 1036.53 1036.24 1035.92 1035.52 1035.05 1034.54 1033.96 1033.38 1032.69 1031.97 1031.26 1030.69 1030.10 1029.64 1029.16 1028.51 1027.81 1027.11 1026.40
1020.24 1020.14 1020.23 1020.71 1021.36 1021.44 1021.96 1022.67 1022.42 1022.10 1022.24 1022.81 1025.20 1028.99 1032.84 1034.56 1035.74 1036.69 1037.11 1037.58 1038.03 1038.23 1038.27 1038.15 1037.82 1037.52 1037.25 1036.83 1036.40 1035.97 1035.44 1034.84 1034.15 1033.41 1032.65 1032.01 1031.39 1030.83 1030.34 1029.83 1029.29 1028.52 1027.80 1027.03
1021.22 1021.41 1021.67 1021.91 1022.39 1023.05 1024.15 1024.92 1025.18 1025.13 1025.63 1026.20 1027.88 1031.37 1034.35 1036.03 1037.05 1037.75 1038.17 1038.63 1038.95 1039.16 1039.16 1038.99 1038.69 1038.39 1038.10 1037.65 1037.19 1036.66 1036.05 1035.47 1034.72 1034.02 1033.31 1032.69 1032.11 1031.52 1030.93 1030.27 1029.84 1029.26 1028.50 1027.74
1022.55 1022.87 1023.30 1023.68 1024.17 1024.94 1026.26 1027.24 1027.85 1028.13 1029.07 1030.05 1031.82 1033.75 1036.35 1038.08 1038.89 1039.16 1039.33 1039.40 1039.53 1039.74 1039.71 1039.57 1039.34 1038.98 1038.61 1038.13 1037.59 1037.03 1036.43 1035.82 1035.13 1034.39 1033.70 1033.05 1032.53 1031.93 1031.33 1030.59 1029.95 1029.37 1028.79 1028.27
1023.68 1023.98 1024.39 1025.05 1025.83 1026.71 1028.29 1029.72 1030.46 1031.22 1032.27 1033.17 1034.51 1036.35 1038.52 1039.33 1039.79 1039.63 1039.88 1040.12 1040.25 1040.36 1040.34 1040.15 1039.89 1039.51 1039.04 1038.58 1038.00 1037.43 1036.76 1036.09 1035.37 1034.58 1033.90 1033.23 1032.72 1032.08 1031.41 1030.76 1030.03 1029.47 1028.94 1028.40
1024.34 1024.71 1025.33 1025.91 1027.15 1028.49 1030.61 1032.36 1033.00 1033.81 1034.87 1035.82 1036.70 1038.44 1039.48 1039.82 1040.14 1040.20 1040.29 1040.65 1040.86 1040.89 1040.67 1040.31 1040.05 1039.68 1039.23 1038.71 1038.20 1037.57 1036.90 1036.24 1035.52 1034.80 1034.08 1033.35 1032.82 1032.12 1031.45 1030.84 1030.14 1029.54 1028.98 1028.30
1024.96 1025.38 1026.13 1027.07 1028.09 1030.45 1033.51 1034.97 1035.85 1036.23 1037.31 1038.20 1039.02 1040.00 1040.77 1041.12 1040.92 1040.74 1040.88 1041.10 1041.32 1041.09 1040.62 1040.28 1039.92 1039.50 1039.09 1038.68 1038.23 1037.62 1036.94 1036.20 1035.47 1034.79 1034.06 1033.50 1032.95 1032.21 1031.51 1030.87 1030.23 1029.59 1028.85 1028.15
1026.09 1026.28 1027.20 1028.11 1029.38 1032.27 1034.72 1036.53 1037.73 1038.34 1039.11 1040.05 1040.71 1041.17 1041.33 1041.30 1040.71 1040.63 1041.13 1041.63 1041.35 1041.15 1040.84 1040.43 1039.94 1039.36 1038.79 1038.39 1037.87 1037.33 1036.65 1035.94 1035.36 1034.67 1034.01 1033.51 1032.90 1032.20 1031.56 1030.89 1030.25 1029.50 1028.67 1027.96
1027.50 1027.65 1027.92 1029.54 1030.89 1033.24 1035.94 1038.03 1039.39 1039.98 1040.31 1041.32 1042.00 1042.22 1042.33 1042.11 1040.79 1040.12 1041.23 1041.30 1041.10 1040.86 1040.47 1039.96 1039.41 1038.90 1038.46 1037.92 1037.44 1036.84 1036.25 1035.61 1034.99 1034.45 1033.99 1033.45 1032.86 1032.22 1031.52 1030.90 1030.12 1029.42 1028.73 1027.89
1029.53 1030.09 1030.48 1031.08 1032.71 1035.67 1037.98 1039.57 1040.60 1041.49 1042.37 1042.39 1042.81 1043.05 1043.20 1042.88 1042.38 1041.65 1041.51 1041.20 1041.02 1040.51 1040.01 1039.54 1039.10 1038.64 1038.08 1037.61 1037.13 1036.59 1035.98 1035.36 1034.92 1034.49 1033.96 1033.39 1032.80 1032.14 1031.44 1030.69 1029.96 1029.26 1028.52 1027.71
1033.14 1033.56 1033.66 1034.58 1035.65 1037.82 1039.69 1041.00 1042.02 1042.55 1042.89 1043.23 1043.44 1043.60 1043.59 1043.25 1042.70 1042.23 1041.69 1041.11 1040.65 1040.09 1039.60 1039.24 1038.69 1038.15 1037.73 1037.29 1036.87 1036.27 1035.68 1035.22 1034.85 1034.31 1033.75 1033.19 1032.62 1032.02 1031.28 1030.53 1029.76 1028.98 1028.22 1027.56
1036.49 1037.44 1037.34 1037.92 1038.48 1039.76 1041.19 1042.00 1043.10 1043.63 1044.01 1043.91 1044.26 1044.15 1043.95 1043.44 1042.69 1042.13 1041.48 1040.96 1040.31 1039.81 1039.37 1038.91 1038.40 1037.84 1037.31 1036.96 1036.59 1035.92 1035.39 1035.07 1034.53 1034.04 1033.43 1032.88 1032.32 1031.73 1031.07 1030.25 1029.37 1028.84 1028.16 1027.41
1038.77 1039.63 1039.50 1039.82 1040.56 1041.32 1042.36 1043.46 1044.07 1044.66 1044.88 1044.68 1044.54 1044.25 1043.86 1043.20 1042.54 1041.83 1041.08 1040.55 1040.00 1039.48 1039.01 1038.57 1038.06 1037.37 1036.82 1036.48 1036.15 1035.71 1035.20 1034.77 1034.25 1033.68 1033.11 1032.61 1031.99 1031.26 1030.53 1030.17 1029.38 1028.66 1027.96 1027.27
1040.22 1040.82 1041.40 1041.34 1041.96 1042.81 1043.53 1044.11 1044.67 1044.99 1045.06 1044.84 1044.24 1043.86 1043.28 1042.65 1041.85 1041.43 1040.82 1040.25 1039.71 1039.22 1038.72 1038.30 1037.63 1037.10 1036.51 1036.12 1035.66 1035.29 1034.82 1034.36 1033.83 1033.27 1032.72 1032.13 1031.49 1030.91 1030.17 1029.63 1029.03 1028.37 1027.68 1027.00
1041.33 1042.09 1042.56 1042.60 1043.36 1043.94 1043.95 1044.45 1044.97 1044.95 1044.62 1044.18 1043.68 1042.98 1042.50 1042.11 1041.55 1041.06 1040.45 1039.90 1039.38 1038.81 1038.11 1037.72 1037.25 1036.69 1036.06 1035.60 1035.07 1034.65 1034.29 1033.91 1033.44 1032.78 1032.16 1031.62 1031.03 1030.44 1029.54 1028.83 1028.25 1027.71 1026.87 1025.97
Wind_Speed
4 9 11 13 13 1 4 2 4 2 3 4 7 11 12 13 17 18 18 18 19 19 18 21 21 22 23 23 22 22 22 25 8 5 5 6 6 5 5 4 5 5 5 5
5 14 9 4 8 8 7 8 11 3 4 8 8 11 12 14 17 17 17 18 19 20 21 22 23 23 22 21 22 22 22 20 18 10 5 5 4 4 4 4 5 6 6 6
10 2 5 8 7 10 10 12 9 6 5 3 5 9 7 11 15 16 17 15 18 19 20 21 23 23 21 22 21 20 20 20 18 20 9 4 2 2 3 4 5 5 6 6
7 4 5 7 6 10 10 11 11 7 6 6 10 3 7 9 12 16 16 16 17 18 18 19 21 22 23 21 18 20 20 20 18 21 16 17 7 7 3 4 4 4 5 6
3 6 7 6 5 11 0 3 7 5 7 3 10 6 8 9 6 13 14 15 16 16 18 19 20 20 20 20 18 17 18 20 20 19 18 14 16 9 5 4 5 5 4 5
1 1 1 1 2 6 9 6 5 3 3 7 11 12 8 2 6 9 11 14 15 16 17 16 17 17 18 18 18 18 20 20 20 19 19 19 18 17 13 11 7 4 3 3
3 2 2 1 4 4 6 7 4 5 6 6 1 8 10 7 8 9 10 12 14 15 16 18 19 19 19 21 21 18 20 20 20 20 19 19 18 16 16 15 11 12 8 5
5 5 0 4 2 1 10 8 5 6 5 2 5 5 7 9 8 8 9 10 12 14 15 16 17 17 18 19 19 19 20 19 19 18 18 16 17 11 11 13 12 11 10 10
4 4 2 4 4 3 6 6 3 5 1 4 5 6 6 7 6 7 8 10 12 13 14 16 16 16 16 17 18 19 19 18 19 18 15 16 15 15 14 15 13 11 13 13
2 3 3 4 2 9 3 3 4 3 5 8 5 6 7 8 3 5 8 10 11 13 14 14 14 16 15 16 15 17 17 17 17 17 14 13 14 14 13 12 14 15 14 16
1 3 4 1 9 6 3 1 2 3 3 5 6 5 4 6 4 4 6 8 10 13 14 13 13 14 14 15 16 16 16 17 17 16 16 15 13 13 13 12 13 13 14 14
4 3 2 4 6 6 4 3 3 5 5 1 4 5 4 5 4 4 5 7 9 11 13 14 14 15 15 15 15 16 16 16 15 15 15 15 15 15 14 14 14 14 14 13
1 0 3 3 3 2 5 4 3 3 2 5 5 4 3 3 4 4 6 7 9 10 12 13 13 13 14 14 14 14 14 15 15 15 14 14 14 14 15 15 15 15 15 15
1 2 2 2 5 4 4 3 4 3 1 2 4 5 6 5 6 8 7 8 7 8 11 12 12 12 12 12 12 12 13 13 14 13 13 12 13 14 13 13 13 13 13 14
3 3 1 2 3 3 4 2 0 4 2 5 3 3 4 3 6 8 8 8 7 9 13 13 13 13 12 12 12 11 11 11 12 11 11 10 11 12 11 12 12 12 11 11
2 4 2 2 5 3 4 3 4 4 3 2 1 2 1 5 5 7 7 6 6 9 13 13 13 13 13 13 12 13 12 12 12 11 11 10 11 12 11 12 11 12 12 11
2 5 3 3 4 4 4 3 3 3 4 4 4 5 6 6 10 10 9 5 5 10 14 13 13 12 12 12 13 12 13 13 12 11 11 11 12 13 12 13 13 12 12 12
5 4 2 3 4 5 5 4 5 3 3 3 2 4 5 6 11 11 5 2 8 14 16 14 12 12 12 12 11 11 11 12 12 12 12 12 13 14 14 14 14 14 12 12
4 3 4 2 3 3 3 2 3 3 2 2 2 5 7 11 11 3 5 2 14 14 12 11 11 12 11 10 10 11 12 12 11 12 12 14 14 14 14 15 15 14 13 13
5 5 0 3 3 4 4 3 2 2 4 4 1 6 9 11 8 4 5 16 15 14 12 12 13 12 12 12 12 13 13 13 12 13 14 14 14 14 15 15 14 13 13 14
3 3 0 2 3 3 1 2 3 4 4 3 4 6 6 6 7 15 17 16 14 13 14 14 13 12 12 12 13 14 13 13 14 14 14 14 15 15 15 14 13 14 14 13
2 1 2 2 3 4 3 4 4 3 1 4 6 5 8 12 14 15 15 14 15 15 15 14 12 12 13 13 13 13 14 14 14 14 15 15 14 12 12 16 14 14 13 14
1 3 2 2 3 3 2 2 4 4 3 5 5 7 10 12 13 14 13 15 14 15 14 13 13 14 13 13 12 15 15 15 15 15 15 15 15 14 13 14 14 13 12 11
3 1 1 2 2 1 2 3 3 1 5 5 7 9 10 12 13 14 14 13 14 13 13 13 14 14 16 13 13 14 15 14 15 15 15 13 13 14 13 11 11 11 11 11
2 2 1 3 3 1 3 4 0 5 5 7 9 9 10 12 14 14 13 14 13 13 12 13 14 14 15 15 15 14 14 14 14 14 14 14 11 13 12 11 11 11 12 13
1 3 2 2 3 2 3 2 3 6 7 9 11 12 12 12 14 14 13 13 13 13 14 14 14 15 16 16 16 15 14 14 14 14 12 11 11 11 11 11 11 16 21 24
Wind_Direction
151 211 213 208 216 211 118 168 227 151 141 314 50 95 58 49 53 49 44 37 32 27 17 18 17 13 9 11 8 7 5 355 330 278 247 238 231 220 218 220 216 218 214 210
172 236 227 200 194 209 222 245 246 261 254 220 140 98 75 60 61 53 43 36 27 20 19 16 14 14 14 9 7 7 8 2 1 332 292 286 246 239 234 215 213 214 214 209
218 59 147 176 171 202 224 232 229 246 148 244 216 167 147 83 68 56 49 42 34 24 16 14 14 15 10 10 6 6 7 7 7 359 330 274 265 233 221 219 221 217 218 215
243 138 158 170 204 205 240 220 238 213 203 241 206 228 138 132 76 48 38 34 27 23 19 17 13 13 12 8 4 7 10 10 10 9 8 350 312 297 312 287 240 223 219 221
137 161 168 193 218 194 336 124 179 188 210 235 196 257 97 177 72 38 36 31 29 24 20 16 12 10 10 9 7 7 9 13 12 14 17 12 4 341 335 325 295 243 230 242
249 1 264 12 101 176 146 113 98 111 194 247 222 222 127 73 16 36 33 31 25 19 19 18 16 11 10 10 9 8 9 12 11 14 16 18 12 1 2 357 341 326 290 256
168 150 92 13 181 180 202 183 195 202 196 247 99 213 61 94 67 53 35 27 23 20 16 13 11 11 11 12 11 8 9 11 9 11 14 15 13 12 9 3 353 347 338 318
193 173 174 4 7 247 195 226 232 244 211 131 155 229 110 104 85 68 51 35 25 19 15 15 13 10 10 10 11 10 10 9 7 9 10 10 13 13 12 5 360 355 353 339
188 163 334 50 337 311 147 204 2 287 182 257 142 110 155 138 92 58 47 30 26 18 14 10 9 10 8 9 9 8 8 10 11 6 5 8 9 10 9 8 5 359 353 347
108 191 29 359 298 64 355 37 181 205 246 243 194 163 109 167 92 45 27 25 22 18 13 10 8 5 6 7 5 6 8 8 7 8 10 8 4 5 3 6 5 2 355 352
27 287 110 244 17 356 350 109 50 332 298 263 272 109 56 103 66 27 25 28 9 4 3 4 4 4 3 3 3 3 4 4 4 6 1 7 6 3 1 2 1 358 354 353
24 40 72 67 94 50 43 49 357 254 173 360 320 127 74 85 49 23 16 7 4 5 359 357 357 358 360 360 360 359 358 358 357 354 358 2 3 3 4 1 357 355 353 351
137 146 139 172 205 170 55 24 35 79 33 228 264 103 122 68 50 45 358 1 356 2 358 354 353 354 352 352 352 352 352 352 349 351 349 353 358 358 358 357 354 354 352 350
106 78 330 337 58 72 130 60 30 31 219 273 257 139 182 17 357 350 345 347 344 354 353 350 349 347 344 344 342 342 341 343 344 343 342 346 349 348 345 344 345 345 347 346
59 122 110 117 49 78 90 103 220 225 49 249 65 56 136 345 301 311 316 326 331 345 349 345 340 339 338 337 335 336 335 336 336 336 335 338 339 339 335 337 336 337 336 336
26 122 119 114 56 112 117 71 99 98 117 138 155 139 79 302 287 293 319 312 320 339 340 335 333 332 332 331 332 330 330 331 333 331 329 330 335 332 330 331 330 331 328 329
91 136 160 151 131 143 182 30 6 88 69 342 273 60 346 336 332 325 321 317 331 333 334 331 327 326 324 325 327 325 325 324 327 325 323 329 332 328 330 328 327 326 323 322
135 113 68 126 171 228 92 36 17 11 71 43 112 10 333 307 295 292 257 189 335 332 327 325 322 318 320 320 312 315 319 320 322 323 324 329 329 325 327 326 325 322 318 317
54 136 107 202 214 91 171 52 6 4 121 129 333 342 334 330 302 149 165 304 325 319 311 307 307 309 311 309 312 317 319 322 323 324 325 326 323 321 322 320 320 315 316 314
62 39 319 161 240 269 58 75 128 174 230 128 352 331 336 334 327 4 349 325 319 315 315 315 314 314 315 320 323 322 320 322 322 325 323 320 319 318 317 314 311 311 310 305
43 28 289 199 247 114 93 54 158 246 63 134 320 313 311 302 297 308 314 313 314 314 315 313 322 310 313 318 319 317 317 317 322 319 316 316 316 315 312 311 311 308 305 301
18 359 91 118 220 223 123 144 240 65 178 304 301 293 292 291 297 300 304 309 316 317 318 318 314 313 315 317 316 312 311 318 317 314 313 311 311 309 308 310 309 305 305 305
169 345 36 312 39 88 123 325 112 74 336 313 284 293 294 294 298 306 309 309 312 313 314 315 313 312 311 313 310 309 313 315 313 312 310 309 309 307 304 299 305 307 303 303
122 19 240 297 141 284 5 136 154 122 317 283 273 291 292 289 301 300 307 309 310 311 312 312 312 306 309 309 309 304 308 309 310 307 308 308 306 303 309 304 295 298 296 299
30 254 9 254 248 293 200 229 282 300 283 269 288 282 286 295 300 304 302 302 303 304 306 302 304 303 303 306 304 304 303 306 303 302 303 303 302 303 304 301 298 292 287 285
202 159 260 24 144 271 272 71 270 286 297 308 304 307 300 302 297 300 296 297 299 301 298 307 302 301 301 302 299 300 301 299 298 298 299 301 302 300 294 305 299 294 298 299